ION SCV-010

导读 | 豆包AI

ION SCV-010是意大利D-Orbit公司研发的卫星运载飞船,于2023年4月15日发射。作为独立可控的卫星运输平台,它可单次发射将多颗客户卫星精准部署至不同轨道面,支持1U至16U立方体卫星及通用微卫星部署。完成主任务后,平台可拓展空间监视跟踪等任务,承载搭载载荷,开展技术验证,依托星载传感器实现目标识别跟踪,为太空态势感知提供支持。

基本信息
目录编号:
56192
目录名称:
ION SCV-010
国际标识:
2023-054Q
轨道中心:
EARTH
卫星名称:
ION SCV-010
卫星全名:
--
卫星状态:
在轨 (已飞行1054 天)
发射日期:
2023-04-15 UTC
国别 :
意大利 (IT)
星等 :
--
轨道信息
数据来源 国际轨道数据
星历时间: 2026-03-04T11:46:34+0800
6小时前
查看轨道信息
半长轴: 6868.532km
偏心率: 0.001215
轨道倾角: 97.392°
近地点辐角 209.007°
升交点赤经 313.989°
平近点角 151.050°
近地点: 482.049km
远地点: 498.741km
周期: 94.418分钟
每日圈数: 15.251301
详细信息
使用方式:
暂无
2D轨道图
3D轨道图
轨道高度分析图
轨道倾角分析图
轨道综合分析图
查看轨道综合分析图